Time,TemperatureF,DewpointF,PressureIn,WindDirection,WindDirectionDegrees,WindSpeedMPH,WindSpeedGustMPH,Humidity,HourlyPrecipIn,Conditions,Clouds,dailyrainin,SoftwareType,DateUTC
2013-06-17 00:02:00,59.0,55.1,30.05,WNW,292,6.0,6.0,87,0.00,,,0.00,VWS V14.01,2013-06-17 06:02:00,
2013-06-17 00:07:00,58.0,54.2,30.05,West,270,2.0,7.0,87,0.00,,,0.00,VWS V14.01,2013-06-17 06:07:00,
2013-06-17 00:12:00,58.0,54.2,30.05,NW,315,6.0,7.0,87,0.00,,,0.00,VWS V14.01,2013-06-17 06:12:00,
2013-06-17 00:17:00,59.0,55.5,30.05,NW,315,6.0,8.0,88,0.00,,,0.00,VWS V14.01,2013-06-17 06:17:00,
2013-06-17 00:23:00,60.0,55.5,30.05,NW,315,9.0,10.0,85,0.00,,,0.00,VWS V14.01,2013-06-17 06:23:00,
2013-06-17 00:28:00,61.0,55.5,30.05,NW,315,9.0,11.0,82,0.00,,,0.00,VWS V14.01,2013-06-17 06:28:00,
2013-06-17 00:33:00,60.0,54.8,30.03,NW,315,12.0,14.0,83,0.00,,,0.00,VWS V14.01,2013-06-17 06:33:00,
2013-06-17 00:38:00,61.0,54.8,30.03,NW,315,6.0,14.0,80,0.00,,,0.00,VWS V14.01,2013-06-17 06:38:00,
2013-06-17 00:43:00,61.0,55.5,30.05,WNW,292,6.0,14.0,82,0.00,,,0.00,VWS V14.01,2013-06-17 06:43:00,
2013-06-17 00:48:00,60.0,54.8,30.05,NW,315,5.0,14.0,83,0.00,,,0.00,VWS V14.01,2013-06-17 06:48:00,
2013-06-17 00:53:00,61.0,55.8,30.05,NW,315,7.0,14.0,83,0.00,,,0.00,VWS V14.01,2013-06-17 06:53:00,
2013-06-17 00:58:00,61.0,55.5,30.05,NW,315,9.0,14.0,82,0.00,,,0.00,VWS V14.01,2013-06-17 06:58:00,
2013-06-17 01:03:00,61.0,54.5,30.05,NW,315,10.0,12.0,79,0.00,,,0.00,VWS V14.01,2013-06-17 07:03:00,
2013-06-17 01:08:00,62.0,55.1,30.05,NW,315,9.0,12.0,78,0.00,,,0.00,VWS V14.01,2013-06-17 07:08:00,
2013-06-17 01:13:00,62.0,54.0,30.04,NW,315,12.0,14.0,75,0.00,,,0.00,VWS V14.01,2013-06-17 07:13:00,
2013-06-17 01:18:00,63.0,53.5,30.04,NW,315,12.0,16.0,71,0.00,,,0.00,VWS V14.01,2013-06-17 07:18:00,
2013-06-17 01:23:00,63.0,53.1,30.05,NW,315,13.0,16.0,70,0.00,,,0.00,VWS V14.01,2013-06-17 07:23:00,
2013-06-17 01:28:00,63.0,52.3,30.05,NW,315,13.0,16.0,68,0.00,,,0.00,VWS V14.01,2013-06-17 07:28:00,
2013-06-17 01:33:00,63.0,52.7,30.05,NW,315,9.0,13.0,69,0.00,,,0.00,VWS V14.01,2013-06-17 07:33:00,
2013-06-17 01:38:00,62.0,52.1,30.05,NW,315,9.0,13.0,70,0.00,,,0.00,VWS V14.01,2013-06-17 07:38:00,
2013-06-17 01:43:00,62.0,52.1,30.05,NW,315,3.0,13.0,70,0.00,,,0.00,VWS V14.01,2013-06-17 07:43:00,
2013-06-17 01:48:00,62.0,52.1,30.05,WNW,292,1.0,13.0,70,0.00,,,0.00,VWS V14.01,2013-06-17 07:48:00,
2013-06-17 01:53:00,62.0,53.3,30.05,South,180,2.0,13.0,73,0.00,,,0.00,VWS V14.01,2013-06-17 07:53:00,
2013-06-17 01:58:00,62.0,52.9,30.05,SSE,157,0.0,13.0,72,0.00,,,0.00,VWS V14.01,2013-06-17 07:58:00,
2013-06-17 02:03:00,62.0,52.9,30.04,NW,315,6.0,6.0,72,0.00,,,0.00,VWS V14.01,2013-06-17 08:03:00,
2013-06-17 02:08:00,60.0,55.2,30.04,WNW,292,2.0,9.0,84,0.00,,,0.00,VWS V14.01,2013-06-17 08:08:00,
2013-06-17 02:13:00,60.0,53.8,30.06,NW,315,3.0,9.0,80,0.00,,,0.00,VWS V14.01,2013-06-17 08:13:00,
2013-06-17 02:18:00,60.0,52.8,30.06,NW,315,6.0,9.0,77,0.00,,,0.00,VWS V14.01,2013-06-17 08:18:00,
2013-06-17 02:23:00,60.0,53.8,30.06,NW,315,2.0,9.0,80,0.00,,,0.00,VWS V14.01,2013-06-17 08:23:00,
2013-06-17 02:28:00,61.0,52.7,30.06,NW,315,3.0,9.0,74,0.00,,,0.00,VWS V14.01,2013-06-17 08:28:00,
2013-06-17 02:33:00,61.0,52.7,30.04,NW,315,0.0,2.0,74,0.00,,,0.00,VWS V14.01,2013-06-17 08:33:00,
2013-06-17 02:38:00,61.0,53.4,30.04,NW,315,0.0,2.0,76,0.00,,,0.00,VWS V14.01,2013-06-17 08:38:00,
2013-06-17 02:43:00,60.0,52.8,30.05,WNW,292,0.0,3.0,77,0.00,,,0.00,VWS V14.01,2013-06-17 08:43:00,
2013-06-17 02:48:00,60.0,53.8,30.05,WSW,247,3.0,5.0,80,0.00,,,0.00,VWS V14.01,2013-06-17 08:48:00,
2013-06-17 02:53:00,59.0,53.8,30.07,WSW,247,2.0,7.0,83,0.00,,,0.00,VWS V14.01,2013-06-17 08:53:00,
2013-06-17 02:58:00,59.0,54.8,30.07,WSW,247,2.0,7.0,86,0.00,,,0.00,VWS V14.01,2013-06-17 08:58:00,
2013-06-17 03:03:00,59.0,53.5,30.08,SW,225,7.0,7.0,82,0.00,,,0.00,VWS V14.01,2013-06-17 09:03:00,
2013-06-17 03:08:00,59.0,54.2,30.08,SW,225,3.0,8.0,84,0.00,,,0.00,VWS V14.01,2013-06-17 09:08:00,
2013-06-17 03:13:00,59.0,53.8,30.08,SW,225,7.0,10.0,83,0.00,,,0.00,VWS V14.01,2013-06-17 09:13:00,
2013-06-17 03:18:00,60.0,53.8,30.08,SW,225,9.0,12.0,80,0.00,,,0.00,VWS V14.01,2013-06-17 09:18:00,
2013-06-17 03:23:00,59.0,54.5,30.07,WSW,247,5.0,12.0,85,0.00,,,0.00,VWS V14.01,2013-06-17 09:23:00,
2013-06-17 03:28:00,59.0,54.2,30.07,WNW,292,4.0,12.0,84,0.00,,,0.00,VWS V14.01,2013-06-17 09:28:00,
2013-06-17 03:33:00,59.0,53.8,30.07,WSW,247,1.0,7.0,83,0.00,,,0.00,VWS V14.01,2013-06-17 09:33:00,
2013-06-17 03:38:00,59.0,54.5,30.07,WSW,247,6.0,7.0,85,0.00,,,0.00,VWS V14.01,2013-06-17 09:38:00,
2013-06-17 03:43:00,59.0,53.8,30.07,West,270,5.0,7.0,83,0.00,,,0.00,VWS V14.01,2013-06-17 09:43:00,
2013-06-17 03:48:00,59.0,54.2,30.07,West,270,1.0,7.0,84,0.00,,,0.00,VWS V14.01,2013-06-17 09:48:00,
2013-06-17 03:53:00,58.0,53.2,30.07,NW,315,0.0,7.0,84,0.00,,,0.00,VWS V14.01,2013-06-17 09:53:00,
2013-06-17 03:58:00,58.0,53.2,30.07,NW,315,1.0,7.0,84,0.00,,,0.00,VWS V14.01,2013-06-17 09:58:00,
2013-06-17 04:03:00,58.0,53.8,30.07,WNW,292,2.0,4.0,86,0.00,,,0.00,VWS V14.01,2013-06-17 10:03:00,
2013-06-17 04:08:00,58.0,53.2,30.07,WNW,292,1.0,4.0,84,0.00,,,0.00,VWS V14.01,2013-06-17 10:08:00,
2013-06-17 04:13:00,58.0,52.9,30.07,WNW,292,1.0,4.0,83,0.00,,,0.00,VWS V14.01,2013-06-17 10:13:00,
2013-06-17 04:18:00,58.0,53.2,30.07,NW,315,0.0,4.0,84,0.00,,,0.00,VWS V14.01,2013-06-17 10:18:00,
2013-06-17 04:23:00,59.0,52.8,30.06,WNW,292,2.0,4.0,80,0.00,,,0.00,VWS V14.01,2013-06-17 10:23:00,
2013-06-17 04:28:00,59.0,52.8,30.06,WNW,292,5.0,6.0,80,0.00,,,0.00,VWS V14.01,2013-06-17 10:28:00,
2013-06-17 04:33:00,59.0,51.5,30.06,West,270,6.0,6.0,76,0.00,,,0.00,VWS V14.01,2013-06-17 10:33:00,
2013-06-17 04:39:00,60.0,52.8,30.06,WNW,292,0.0,6.0,77,0.00,,,0.00,VWS V14.01,2013-06-17 10:39:00,
2013-06-17 04:44:00,60.0,52.1,30.05,WNW,292,3.0,6.0,75,0.00,,,0.00,VWS V14.01,2013-06-17 10:44:00,
2013-06-17 04:49:00,60.0,52.8,30.05,WNW,292,2.0,6.0,77,0.00,,,0.00,VWS V14.01,2013-06-17 10:49:00,
2013-06-17 04:54:00,59.0,52.8,30.05,West,270,2.0,6.0,80,0.00,,,0.00,VWS V14.01,2013-06-17 10:54:00,
2013-06-17 04:59:00,59.0,53.8,30.05,NW,315,2.0,6.0,83,0.00,,,0.00,VWS V14.01,2013-06-17 10:59:00,
2013-06-17 05:04:00,58.0,52.9,30.06,NW,315,4.0,6.0,83,0.00,,,0.00,VWS V14.01,2013-06-17 11:04:00,
2013-06-17 05:09:00,58.0,52.9,30.06,NW,315,5.0,6.0,83,0.00,,,0.00,VWS V14.01,2013-06-17 11:09:00,
2013-06-17 05:14:00,58.0,52.2,30.06,WNW,292,2.0,6.0,81,0.00,,,0.00,VWS V14.01,2013-06-17 11:14:00,
2013-06-17 05:19:00,58.0,52.2,30.06,NW,315,4.0,6.0,81,0.00,,,0.00,VWS V14.01,2013-06-17 11:19:00,
2013-06-17 05:24:00,58.0,53.2,30.06,NW,315,4.0,6.0,84,0.00,,,0.00,VWS V14.01,2013-06-17 11:24:00,
2013-06-17 05:29:00,58.0,52.9,30.06,NW,315,1.0,3.0,83,0.00,,,0.00,VWS V14.01,2013-06-17 11:29:00,
2013-06-17 05:34:00,58.0,52.2,30.07,WNW,292,6.0,6.0,81,0.00,,,0.00,VWS V14.01,2013-06-17 11:34:00,
2013-06-17 05:39:00,59.0,52.5,30.07,WNW,292,1.0,6.0,79,0.00,,,0.00,VWS V14.01,2013-06-17 11:39:00,
2013-06-17 05:44:00,58.0,52.2,30.07,NW,315,2.0,6.0,81,0.00,,,0.00,VWS V14.01,2013-06-17 11:44:00,
2013-06-17 05:49:00,58.0,52.5,30.07,NW,315,2.0,6.0,82,0.00,,,0.00,VWS V14.01,2013-06-17 11:49:00,
2013-06-17 05:54:00,58.0,53.2,30.08,NNW,337,3.0,6.0,84,0.00,,,0.00,VWS V14.01,2013-06-17 11:54:00,
2013-06-17 05:59:00,58.0,53.2,30.08,NNW,337,6.0,7.0,84,0.00,,,0.00,VWS V14.01,2013-06-17 11:59:00,
2013-06-17 06:04:00,58.0,52.9,30.07,NW,315,7.0,10.0,83,0.00,,,0.00,VWS V14.01,2013-06-17 12:04:00,
2013-06-17 06:09:00,58.0,53.2,30.07,NW,315,9.0,10.0,84,0.00,,,0.00,VWS V14.01,2013-06-17 12:09:00,
2013-06-17 06:14:00,58.0,53.2,30.07,NW,315,10.0,12.0,84,0.00,,,0.00,VWS V14.01,2013-06-17 12:14:00,
2013-06-17 06:19:00,58.0,53.5,30.07,NNW,337,9.0,12.0,85,0.00,,,0.00,VWS V14.01,2013-06-17 12:19:00,
2013-06-17 06:24:00,58.0,53.8,30.07,NNW,337,9.0,12.0,86,0.00,,,0.00,VWS V14.01,2013-06-17 12:24:00,
2013-06-17 06:29:00,58.0,53.8,30.07,NNW,337,10.0,10.0,86,0.00,,,0.00,VWS V14.01,2013-06-17 12:29:00,
2013-06-17 06:34:00,58.0,53.8,30.07,NNW,337,10.0,13.0,86,0.00,,,0.00,VWS V14.01,2013-06-17 12:34:00,
2013-06-17 06:39:00,58.0,53.8,30.07,NW,315,6.0,13.0,86,0.00,,,0.00,VWS V14.01,2013-06-17 12:39:00,
2013-06-17 06:44:00,58.0,53.8,30.07,WNW,292,4.0,13.0,86,0.00,,,0.00,VWS V14.01,2013-06-17 12:44:00,
2013-06-17 06:49:00,58.0,54.5,30.07,NW,315,1.0,13.0,88,0.00,,,0.00,VWS V14.01,2013-06-17 12:49:00,
2013-06-17 06:54:00,58.0,54.5,30.07,NW,315,7.0,13.0,88,0.00,,,0.00,VWS V14.01,2013-06-17 12:54:00,
2013-06-17 06:59:00,59.0,55.1,30.07,NW,315,8.0,8.0,87,0.00,,,0.00,VWS V14.01,2013-06-17 12:59:00,
2013-06-17 07:04:00,59.0,53.5,30.07,NW,315,6.0,9.0,82,0.00,,,0.00,VWS V14.01,2013-06-17 13:04:00,
2013-06-17 07:09:00,59.0,53.2,30.07,NW,315,6.0,9.0,81,0.00,,,0.00,VWS V14.01,2013-06-17 13:09:00,
2013-06-17 07:14:00,60.0,54.2,30.06,NW,315,8.0,9.0,81,0.00,,,0.00,VWS V14.01,2013-06-17 13:14:00,
2013-06-17 07:19:00,60.0,53.8,30.06,NW,315,9.0,10.0,80,0.00,,,0.00,VWS V14.01,2013-06-17 13:19:00,
2013-06-17 07:24:00,60.0,53.5,30.07,NW,315,5.0,10.0,79,0.00,,,0.00,VWS V14.01,2013-06-17 13:24:00,
2013-06-17 07:29:00,61.0,54.1,30.07,NW,315,8.0,10.0,78,0.00,,,0.00,VWS V14.01,2013-06-17 13:29:00,
2013-06-17 07:34:00,61.0,53.8,30.06,NW,315,8.0,12.0,77,0.00,,,0.00,VWS V14.01,2013-06-17 13:34:00,
2013-06-17 07:39:00,62.0,53.3,30.06,NW,315,10.0,13.0,73,0.00,,,0.00,VWS V14.01,2013-06-17 13:39:00,
2013-06-17 07:44:00,62.0,51.7,30.05,NW,315,7.0,13.0,69,0.00,,,0.00,VWS V14.01,2013-06-17 13:44:00,
2013-06-17 07:49:00,63.0,53.5,30.05,NW,315,9.0,13.0,71,0.00,,,0.00,VWS V14.01,2013-06-17 13:49:00,
2013-06-17 07:54:00,63.0,52.7,30.05,NW,315,10.0,13.0,69,0.00,,,0.00,VWS V14.01,2013-06-17 13:54:00,
2013-06-17 08:00:00,65.0,53.0,30.05,NNW,337,8.0,8.0,65,0.00,,,0.00,VWS V14.01,2013-06-17 14:00:00,
2013-06-17 08:05:00,65.0,51.7,30.04,NNW,337,9.0,12.0,62,0.00,,,0.00,VWS V14.01,2013-06-17 14:05:00,
2013-06-17 08:10:00,66.0,51.3,30.04,North,360,7.0,12.0,59,0.00,,,0.00,VWS V14.01,2013-06-17 14:10:00,
2013-06-17 08:15:00,66.0,51.7,30.04,North,360,7.0,12.0,60,0.00,,,0.00,VWS V14.01,2013-06-17 14:15:00,
2013-06-17 08:20:00,67.0,51.8,30.04,North,360,7.0,12.0,58,0.00,,,0.00,VWS V14.01,2013-06-17 14:20:00,
2013-06-17 08:25:00,67.0,52.2,30.03,North,360,10.0,12.0,59,0.00,,,0.00,VWS V14.01,2013-06-17 14:25:00,
2013-06-17 08:30:00,68.0,54.1,30.03,NNE,22,8.0,8.0,61,0.00,,,0.00,VWS V14.01,2013-06-17 14:30:00,
2013-06-17 08:35:00,67.0,51.3,30.03,NE,45,7.0,8.0,57,0.00,,,0.00,VWS V14.01,2013-06-17 14:35:00,
2013-06-17 08:40:00,68.0,52.2,30.03,NE,45,3.0,10.0,57,0.00,,,0.00,VWS V14.01,2013-06-17 14:40:00,
2013-06-17 08:45:00,67.0,50.3,30.03,NNE,22,6.0,11.0,55,0.00,,,0.00,VWS V14.01,2013-06-17 14:45:00,
2013-06-17 08:50:00,68.0,50.8,30.03,NNE,22,7.0,11.0,54,0.00,,,0.00,VWS V14.01,2013-06-17 14:50:00,
2013-06-17 08:55:00,67.0,50.8,30.02,NNE,22,10.0,11.0,56,0.00,,,0.00,VWS V14.01,2013-06-17 14:55:00,
2013-06-17 09:00:00,67.0,50.3,30.02,NNE,22,5.0,6.0,55,0.00,,,0.00,VWS V14.01,2013-06-17 15:00:00,
2013-06-17 09:05:00,69.0,51.2,30.03,NE,45,7.0,8.0,53,0.00,,,0.00,VWS V14.01,2013-06-17 15:05:00,
2013-06-17 09:10:00,66.0,50.3,30.03,NE,45,9.0,11.0,57,0.00,,,0.00,VWS V14.01,2013-06-17 15:10:00,
2013-06-17 09:15:00,66.0,51.3,30.03,ENE,67,4.0,12.0,59,0.00,,,0.00,VWS V14.01,2013-06-17 15:15:00,
2013-06-17 09:20:00,67.0,50.3,30.03,East,90,7.0,12.0,55,0.00,,,0.00,VWS V14.01,2013-06-17 15:20:00,
2013-06-17 09:25:00,67.0,50.8,30.02,East,90,12.0,13.0,56,0.00,,,0.00,VWS V14.01,2013-06-17 15:25:00,
2013-06-17 09:30:00,66.0,49.4,30.03,ENE,67,10.0,10.0,55,0.00,,,0.00,VWS V14.01,2013-06-17 15:30:00,
2013-06-17 09:35:00,66.0,49.9,30.03,ENE,67,6.0,12.0,56,0.00,,,0.00,VWS V14.01,2013-06-17 15:35:00,
2013-06-17 09:40:00,67.0,52.2,30.03,ENE,67,9.0,12.0,59,0.00,,,0.00,VWS V14.01,2013-06-17 15:40:00,
2013-06-17 09:45:00,67.0,49.8,30.03,NE,45,6.0,12.0,54,0.00,,,0.00,VWS V14.01,2013-06-17 15:45:00,
2013-06-17 09:50:00,67.0,49.3,30.03,East,90,7.0,12.0,53,0.00,,,0.00,VWS V14.01,2013-06-17 15:50:00,
2013-06-17 09:55:00,67.0,49.8,30.03,ENE,67,6.0,12.0,54,0.00,,,0.00,VWS V14.01,2013-06-17 15:55:00,
2013-06-17 10:00:00,68.0,51.7,30.02,ENE,67,5.0,10.0,56,0.00,,,0.00,VWS V14.01,2013-06-17 16:00:00,
2013-06-17 10:05:00,68.0,52.7,30.02,ENE,67,9.0,14.0,58,0.00,,,0.00,VWS V14.01,2013-06-17 16:05:00,
2013-06-17 10:10:00,68.0,51.2,30.02,ENE,67,5.0,14.0,55,0.00,,,0.00,VWS V14.01,2013-06-17 16:10:00,
2013-06-17 10:15:00,67.0,48.8,30.02,NE,45,8.0,19.0,52,0.00,,,0.00,VWS V14.01,2013-06-17 16:15:00,
2013-06-17 10:21:00,68.0,51.2,30.01,East,90,11.0,19.0,55,0.00,,,0.00,VWS V14.01,2013-06-17 16:21:00,
2013-06-17 10:26:00,68.0,50.2,30.01,ENE,67,14.0,19.0,53,0.00,,,0.00,VWS V14.01,2013-06-17 16:26:00,
2013-06-17 10:31:00,68.0,51.2,30.01,NE,45,12.0,15.0,55,0.00,,,0.00,VWS V14.01,2013-06-17 16:31:00,
2013-06-17 10:36:00,69.0,52.2,30.01,ENE,67,7.0,15.0,55,0.00,,,0.00,VWS V14.01,2013-06-17 16:36:00,
2013-06-17 10:41:00,68.0,51.7,30.01,ENE,67,10.0,16.0,56,0.00,,,0.00,VWS V14.01,2013-06-17 16:41:00,
2013-06-17 10:46:00,69.0,52.7,30.01,NE,45,12.0,16.0,56,0.00,,,0.00,VWS V14.01,2013-06-17 16:46:00,
2013-06-17 10:51:00,69.0,52.2,30.01,NE,45,10.0,16.0,55,0.00,,,0.00,VWS V14.01,2013-06-17 16:51:00,
2013-06-17 10:56:00,69.0,52.7,30.01,ENE,67,5.0,16.0,56,0.00,,,0.00,VWS V14.01,2013-06-17 16:56:00,
2013-06-17 11:01:00,69.0,52.2,30.01,East,90,7.0,14.0,55,0.00,,,0.00,VWS V14.01,2013-06-17 17:01:00,
2013-06-17 11:06:00,69.0,51.2,30.01,ENE,67,9.0,15.0,53,0.00,,,0.00,VWS V14.01,2013-06-17 17:06:00,
2013-06-17 11:11:00,69.0,51.7,30.01,NE,45,13.0,17.0,54,0.00,,,0.00,VWS V14.01,2013-06-17 17:11:00,
2013-06-17 11:16:00,70.0,51.1,30.01,ENE,67,10.0,17.0,51,0.00,,,0.00,VWS V14.01,2013-06-17 17:16:00,
2013-06-17 11:21:00,70.0,52.1,30.01,ENE,67,11.0,17.0,53,0.00,,,0.00,VWS V14.01,2013-06-17 17:21:00,
2013-06-17 11:26:00,69.0,53.2,30.01,ENE,67,11.0,17.0,57,0.00,,,0.00,VWS V14.01,2013-06-17 17:26:00,
2013-06-17 11:31:00,72.0,52.9,29.99,NE,45,15.0,15.0,51,0.00,,,0.00,VWS V14.01,2013-06-17 17:31:00,
2013-06-17 11:36:00,69.0,51.2,29.99,NE,45,8.0,15.0,53,0.00,,,0.00,VWS V14.01,2013-06-17 17:36:00,
2013-06-17 11:41:00,71.0,52.5,30.00,NE,45,10.0,15.0,52,0.00,,,0.00,VWS V14.01,2013-06-17 17:41:00,
2013-06-17 11:46:00,69.0,52.2,30.00,NE,45,8.0,15.0,55,0.00,,,0.00,VWS V14.01,2013-06-17 17:46:00,
2013-06-17 11:51:00,68.0,51.7,30.02,NE,45,12.0,15.0,56,0.00,,,0.00,VWS V14.01,2013-06-17 17:51:00,
2013-06-17 11:56:00,68.0,52.2,30.02,NNE,22,11.0,15.0,57,0.00,,,0.00,VWS V14.01,2013-06-17 17:56:00,
2013-06-17 12:01:00,67.0,52.2,30.02,NE,45,11.0,15.0,59,0.00,,,0.00,VWS V14.01,2013-06-17 18:01:00,
2013-06-17 12:06:00,67.0,52.7,30.02,NE,45,9.0,15.0,60,0.00,,,0.00,VWS V14.01,2013-06-17 18:06:00,
2013-06-17 12:11:00,67.0,55.3,30.02,NE,45,9.0,15.0,66,0.00,,,0.00,VWS V14.01,2013-06-17 18:11:00,
2013-06-17 12:16:00,67.0,55.3,30.02,NE,45,7.0,15.0,66,0.00,,,0.00,VWS V14.01,2013-06-17 18:16:00,
2013-06-17 12:21:00,67.0,53.6,30.03,NNE,22,9.0,15.0,62,0.00,,,0.00,VWS V14.01,2013-06-17 18:21:00,
2013-06-17 12:26:00,69.0,54.5,30.03,NNE,22,10.0,15.0,60,0.00,,,0.00,VWS V14.01,2013-06-17 18:26:00,
2013-06-17 12:31:00,69.0,55.5,30.00,NE,45,11.0,14.0,62,0.00,,,0.00,VWS V14.01,2013-06-17 18:31:00,
2013-06-17 12:36:00,68.0,53.2,30.00,NE,45,7.0,14.0,59,0.00,,,0.00,VWS V14.01,2013-06-17 18:36:00,
2013-06-17 12:42:00,68.0,53.6,30.01,ENE,67,7.0,14.0,60,0.00,,,0.00,VWS V14.01,2013-06-17 18:42:00,
2013-06-17 12:47:00,69.0,54.5,30.01,NE,45,10.0,14.0,60,0.00,,,0.00,VWS V14.01,2013-06-17 18:47:00,
2013-06-17 12:52:00,68.0,52.2,30.01,ENE,67,9.0,14.0,57,0.00,,,0.00,VWS V14.01,2013-06-17 18:52:00,
2013-06-17 12:57:00,70.0,54.6,30.01,NNE,22,4.0,14.0,58,0.00,,,0.00,VWS V14.01,2013-06-17 18:57:00,
2013-06-17 13:02:00,70.0,55.0,30.00,NE,45,9.0,12.0,59,0.00,,,0.00,VWS V14.01,2013-06-17 19:02:00,
2013-06-17 13:07:00,70.0,53.6,30.00,NE,45,7.0,13.0,56,0.00,,,0.00,VWS V14.01,2013-06-17 19:07:00,
2013-06-17 13:12:00,72.0,54.0,29.99,North,360,7.0,13.0,53,0.00,,,0.00,VWS V14.01,2013-06-17 19:12:00,
2013-06-17 13:17:00,70.0,54.1,29.99,ENE,67,6.0,13.0,57,0.00,,,0.00,VWS V14.01,2013-06-17 19:17:00,
2013-06-17 13:22:00,69.0,53.2,30.00,NE,45,10.0,13.0,57,0.00,,,0.00,VWS V14.01,2013-06-17 19:22:00,
2013-06-17 13:27:00,69.0,54.1,30.00,NE,45,6.0,13.0,59,0.00,,,0.00,VWS V14.01,2013-06-17 19:27:00,
2013-06-17 13:32:00,69.0,55.0,30.00,East,90,6.0,8.0,61,0.00,,,0.00,VWS V14.01,2013-06-17 19:32:00,
2013-06-17 13:37:00,68.0,54.1,30.00,ENE,67,7.0,9.0,61,0.00,,,0.00,VWS V14.01,2013-06-17 19:37:00,
2013-06-17 13:42:00,68.0,54.1,30.01,East,90,3.0,9.0,61,0.00,,,0.00,VWS V14.01,2013-06-17 19:42:00,
2013-06-17 13:47:00,67.0,54.4,30.01,NE,45,2.0,9.0,64,0.00,,,0.00,VWS V14.01,2013-06-17 19:47:00,
2013-06-17 13:52:00,67.0,53.6,30.01,ENE,67,7.0,9.0,62,0.01,,,0.01,VWS V14.01,2013-06-17 19:52:00,
2013-06-17 13:57:00,65.0,56.5,30.01,ENE,67,2.0,9.0,74,0.03,,,0.03,VWS V14.01,2013-06-17 19:57:00,
2013-06-17 14:02:00,65.0,58.3,30.03,NNE,22,5.0,5.0,79,0.03,,,0.03,VWS V14.01,2013-06-17 20:02:00,
2013-06-17 14:07:00,65.0,56.5,30.03,NE,45,7.0,7.0,74,0.03,,,0.03,VWS V14.01,2013-06-17 20:07:00,
2013-06-17 14:12:00,65.0,56.5,30.02,ENE,67,4.0,8.0,74,0.03,,,0.03,VWS V14.01,2013-06-17 20:12:00,
2013-06-17 14:17:00,65.0,58.0,30.02,ENE,67,6.0,8.0,78,0.03,,,0.03,VWS V14.01,2013-06-17 20:17:00,
2013-06-17 14:22:00,65.0,57.3,30.02,NE,45,0.0,8.0,76,0.03,,,0.03,VWS V14.01,2013-06-17 20:22:00,
2013-06-17 14:27:00,65.0,58.7,30.02,North,360,0.0,8.0,80,0.03,,,0.03,VWS V14.01,2013-06-17 20:27:00,
2013-06-17 14:32:00,65.0,57.6,30.03,ESE,112,2.0,5.0,77,0.04,,,0.04,VWS V14.01,2013-06-17 20:32:00,
2013-06-17 14:37:00,65.0,58.3,30.03,East,90,6.0,6.0,79,0.04,,,0.04,VWS V14.01,2013-06-17 20:37:00,
2013-06-17 14:42:00,66.0,58.6,30.02,SE,135,4.0,6.0,77,0.04,,,0.04,VWS V14.01,2013-06-17 20:42:00,
2013-06-17 14:47:00,67.0,58.5,30.02,SE,135,3.0,6.0,74,0.04,,,0.04,VWS V14.01,2013-06-17 20:47:00,
2013-06-17 14:52:00,67.0,55.7,30.01,East,90,6.0,10.0,67,0.04,,,0.04,VWS V14.01,2013-06-17 20:52:00,
2013-06-17 14:57:00,67.0,54.4,30.01,East,90,3.0,12.0,64,0.04,,,0.04,VWS V14.01,2013-06-17 20:57:00,
2013-06-17 15:02:00,67.0,55.7,29.99,East,90,8.0,12.0,67,0.01,,,0.04,VWS V14.01,2013-06-17 21:02:00,
2013-06-17 15:07:00,67.0,54.9,29.99,NE,45,2.0,12.0,65,0.01,,,0.04,VWS V14.01,2013-06-17 21:07:00,
2013-06-17 15:12:00,66.0,56.7,30.02,North,360,7.0,12.0,72,0.01,,,0.04,VWS V14.01,2013-06-17 21:12:00,
2013-06-17 15:17:00,66.0,57.5,30.02,East,90,7.0,12.0,74,0.01,,,0.04,VWS V14.01,2013-06-17 21:17:00,
2013-06-17 15:22:00,66.0,58.6,30.00,SE,135,7.0,12.0,77,0.01,,,0.04,VWS V14.01,2013-06-17 21:22:00,
2013-06-17 15:27:00,65.0,57.3,30.00,ESE,112,7.0,12.0,76,0.01,,,0.04,VWS V14.01,2013-06-17 21:27:00,
2013-06-17 15:32:00,65.0,58.3,30.01,NE,45,7.0,8.0,79,0.01,,,0.04,VWS V14.01,2013-06-17 21:32:00,
2013-06-17 15:37:00,65.0,58.3,30.01,East,90,5.0,9.0,79,0.01,,,0.04,VWS V14.01,2013-06-17 21:37:00,
2013-06-17 15:42:00,65.0,56.5,30.01,NE,45,6.0,9.0,74,0.01,,,0.04,VWS V14.01,2013-06-17 21:42:00,
2013-06-17 15:47:00,64.0,58.7,30.01,North,360,12.0,14.0,83,0.01,,,0.04,VWS V14.01,2013-06-17 21:47:00,
2013-06-17 15:52:00,63.0,55.7,30.03,NW,315,7.0,15.0,77,0.01,,,0.04,VWS V14.01,2013-06-17 21:52:00,
2013-06-17 15:57:00,63.0,57.4,30.03,NNE,22,3.0,15.0,82,0.02,,,0.05,VWS V14.01,2013-06-17 21:57:00,
2013-06-17 16:02:00,60.0,56.4,30.05,ESE,112,12.0,13.0,88,0.18,,,0.22,VWS V14.01,2013-06-17 22:02:00,
2013-06-17 16:07:00,59.0,55.5,30.05,SE,135,7.0,14.0,88,0.23,,,0.27,VWS V14.01,2013-06-17 22:07:00,
2013-06-17 16:12:00,59.0,55.5,30.05,SE,135,5.0,14.0,88,0.24,,,0.28,VWS V14.01,2013-06-17 22:12:00,
2013-06-17 16:17:00,60.0,56.1,30.05,SE,135,9.0,14.0,87,0.24,,,0.28,VWS V14.01,2013-06-17 22:17:00,
2013-06-17 16:22:00,61.0,54.8,30.04,ESE,112,8.0,14.0,80,0.24,,,0.28,VWS V14.01,2013-06-17 22:22:00,
2013-06-17 16:27:00,62.0,55.8,30.04,East,90,8.0,14.0,80,0.24,,,0.28,VWS V14.01,2013-06-17 22:27:00,
2013-06-17 16:32:00,62.0,55.8,30.02,SE,135,1.0,6.0,80,0.24,,,0.28,VWS V14.01,2013-06-17 22:32:00,
2013-06-17 16:37:00,63.0,56.7,30.02,SE,135,1.0,6.0,80,0.24,,,0.28,VWS V14.01,2013-06-17 22:37:00,
2013-06-17 16:42:00,63.0,58.1,30.03,SE,135,0.0,6.0,84,0.24,,,0.28,VWS V14.01,2013-06-17 22:42:00,
2013-06-17 16:47:00,63.0,57.4,30.03,NW,315,9.0,10.0,82,0.24,,,0.28,VWS V14.01,2013-06-17 22:47:00,
2013-06-17 16:52:00,64.0,58.4,30.01,NW,315,9.0,11.0,82,0.24,,,0.28,VWS V14.01,2013-06-17 22:52:00,
2013-06-17 16:57:00,64.0,59.7,30.01,WNW,292,0.0,11.0,86,0.24,,,0.28,VWS V14.01,2013-06-17 22:57:00,
2013-06-17 17:02:00,65.0,60.4,30.02,WSW,247,6.0,9.0,85,0.21,,,0.28,VWS V14.01,2013-06-17 23:02:00,
2013-06-17 17:07:00,65.0,58.0,30.02,WSW,247,6.0,10.0,78,0.21,,,0.28,VWS V14.01,2013-06-17 23:07:00,
2013-06-17 17:12:00,65.0,59.0,30.01,SW,225,7.0,10.0,81,0.21,,,0.28,VWS V14.01,2013-06-17 23:12:00,
2013-06-17 17:17:00,66.0,60.0,30.01,West,270,0.0,10.0,81,0.21,,,0.28,VWS V14.01,2013-06-17 23:17:00,
2013-06-17 17:22:00,67.0,59.6,30.00,WSW,247,1.0,10.0,77,0.21,,,0.28,VWS V14.01,2013-06-17 23:22:00,
2013-06-17 17:27:00,66.0,58.2,30.00,WSW,247,4.0,10.0,76,0.21,,,0.28,VWS V14.01,2013-06-17 23:27:00,
2013-06-17 17:32:00,66.0,57.9,30.00,West,270,3.0,6.0,75,0.00,,,0.28,VWS V14.01,2013-06-17 23:32:00,
2013-06-17 17:37:00,66.0,59.0,30.00,SW,225,1.0,6.0,78,0.00,,,0.28,VWS V14.01,2013-06-17 23:37:00,
2013-06-17 17:42:00,65.0,56.9,30.00,SW,225,0.0,6.0,75,0.00,,,0.28,VWS V14.01,2013-06-17 23:42:00,
2013-06-17 17:47:00,65.0,58.3,30.00,SW,225,1.0,6.0,79,0.00,,,0.28,VWS V14.01,2013-06-17 23:47:00,
2013-06-17 17:52:00,65.0,59.0,30.01,WSW,247,3.0,6.0,81,0.00,,,0.28,VWS V14.01,2013-06-17 23:52:00,
2013-06-17 17:57:00,65.0,58.3,30.01,SW,225,4.0,6.0,79,0.00,,,0.28,VWS V14.01,2013-06-17 23:57:00,
2013-06-17 18:02:00,65.0,59.0,30.01,SW,225,5.0,6.0,81,0.00,,,0.28,VWS V14.01,2013-06-18 00:02:00,
2013-06-17 18:07:00,65.0,59.7,30.01,WSW,247,2.0,7.0,83,0.00,,,0.28,VWS V14.01,2013-06-18 00:07:00,
2013-06-17 18:12:00,65.0,58.3,30.01,SW,225,10.0,10.0,79,0.00,,,0.28,VWS V14.01,2013-06-18 00:12:00,
2013-06-17 18:18:00,65.0,59.0,30.01,SW,225,6.0,10.0,81,0.00,,,0.28,VWS V14.01,2013-06-18 00:18:00,
2013-06-17 18:23:00,65.0,59.7,30.01,SW,225,4.0,10.0,83,0.00,,,0.28,VWS V14.01,2013-06-18 00:23:00,
2013-06-17 18:28:00,64.0,59.1,30.01,WSW,247,2.0,10.0,84,0.00,,,0.28,VWS V14.01,2013-06-18 00:28:00,
2013-06-17 18:33:00,64.0,59.4,30.01,SW,225,5.0,7.0,85,0.00,,,0.28,VWS V14.01,2013-06-18 00:33:00,
2013-06-17 18:38:00,64.0,59.1,30.01,SW,225,1.0,7.0,84,0.00,,,0.28,VWS V14.01,2013-06-18 00:38:00,
2013-06-17 18:43:00,64.0,59.4,30.01,WSW,247,1.0,7.0,85,0.00,,,0.28,VWS V14.01,2013-06-18 00:43:00,
2013-06-17 18:48:00,64.0,59.7,30.01,WSW,247,0.0,7.0,86,0.00,,,0.28,VWS V14.01,2013-06-18 00:48:00,
2013-06-17 18:53:00,64.0,59.7,30.00,WSW,247,0.0,7.0,86,0.00,,,0.28,VWS V14.01,2013-06-18 00:53:00,
2013-06-17 18:58:00,64.0,60.1,30.00,NW,315,2.0,7.0,87,0.00,,,0.28,VWS V14.01,2013-06-18 00:58:00,
2013-06-17 19:03:00,64.0,60.1,30.01,West,270,0.0,4.0,87,0.00,,,0.28,VWS V14.01,2013-06-18 01:03:00,
2013-06-17 19:08:00,64.0,59.7,30.01,West,270,0.0,4.0,86,0.00,,,0.28,VWS V14.01,2013-06-18 01:08:00,
2013-06-17 19:13:00,64.0,60.4,30.01,West,270,3.0,4.0,88,0.00,,,0.28,VWS V14.01,2013-06-18 01:13:00,
2013-06-17 19:18:00,63.0,59.1,30.01,SW,225,5.0,6.0,87,0.00,,,0.28,VWS V14.01,2013-06-18 01:18:00,
2013-06-17 19:23:00,63.0,58.4,30.01,WSW,247,3.0,6.0,85,0.00,,,0.28,VWS V14.01,2013-06-18 01:23:00,
2013-06-17 19:28:00,64.0,58.7,30.01,WSW,247,2.0,6.0,83,0.00,,,0.28,VWS V14.01,2013-06-18 01:28:00,
2013-06-17 19:33:00,64.0,59.4,30.00,WSW,247,0.0,1.0,85,0.00,,,0.28,VWS V14.01,2013-06-18 01:33:00,
2013-06-17 19:38:00,64.0,59.4,30.00,WSW,247,0.0,1.0,85,0.00,,,0.28,VWS V14.01,2013-06-18 01:38:00,
2013-06-17 19:43:00,64.0,59.4,30.01,WSW,247,0.0,3.0,85,0.00,,,0.28,VWS V14.01,2013-06-18 01:43:00,
2013-06-17 19:48:00,64.0,58.4,30.01,NW,315,2.0,3.0,82,0.00,,,0.28,VWS V14.01,2013-06-18 01:48:00,
2013-06-17 19:53:00,64.0,59.1,30.01,WNW,292,2.0,5.0,84,0.00,,,0.28,VWS V14.01,2013-06-18 01:53:00,
2013-06-17 19:58:00,64.0,59.4,30.01,SW,225,7.0,9.0,85,0.00,,,0.28,VWS V14.01,2013-06-18 01:58:00,
2013-06-17 20:03:00,64.0,59.4,30.01,SW,225,6.0,9.0,85,0.00,,,0.28,VWS V14.01,2013-06-18 02:03:00,
2013-06-17 20:08:00,64.0,59.1,30.01,SW,225,3.0,9.0,84,0.00,,,0.28,VWS V14.01,2013-06-18 02:08:00,
2013-06-17 20:13:00,64.0,58.7,30.01,SSW,202,4.0,9.0,83,0.00,,,0.28,VWS V14.01,2013-06-18 02:13:00,
2013-06-17 20:18:00,64.0,58.4,30.01,SSW,202,4.0,9.0,82,0.00,,,0.28,VWS V14.01,2013-06-18 02:18:00,
2013-06-17 20:23:00,63.0,57.4,30.01,South,180,3.0,9.0,82,0.00,,,0.28,VWS V14.01,2013-06-18 02:23:00,
2013-06-17 20:28:00,63.0,58.4,30.01,South,180,3.0,9.0,85,0.00,,,0.28,VWS V14.01,2013-06-18 02:28:00,
2013-06-17 20:33:00,62.0,57.8,30.02,SSW,202,4.0,5.0,86,0.00,,,0.28,VWS V14.01,2013-06-18 02:33:00,
2013-06-17 20:38:00,62.0,58.4,30.02,SSW,202,3.0,5.0,88,0.00,,,0.28,VWS V14.01,2013-06-18 02:38:00,
2013-06-17 20:43:00,61.0,57.4,30.03,SSW,202,6.0,7.0,88,0.00,,,0.28,VWS V14.01,2013-06-18 02:43:00,
2013-06-17 20:48:00,61.0,57.4,30.03,SW,225,2.0,7.0,88,0.00,,,0.28,VWS V14.01,2013-06-18 02:48:00,
2013-06-17 20:53:00,60.0,56.4,30.03,SW,225,2.0,7.0,88,0.00,,,0.28,VWS V14.01,2013-06-18 02:53:00,
2013-06-17 20:58:00,59.0,54.5,30.03,WSW,247,5.0,7.0,85,0.00,,,0.28,VWS V14.01,2013-06-18 02:58:00,
2013-06-17 21:03:00,60.0,56.1,30.05,WSW,247,3.0,9.0,87,0.00,,,0.28,VWS V14.01,2013-06-18 03:03:00,
2013-06-17 21:08:00,59.0,55.1,30.05,SW,225,8.0,9.0,87,0.00,,,0.28,VWS V14.01,2013-06-18 03:08:00,
2013-06-17 21:13:00,60.0,56.1,30.04,SSW,202,10.0,10.0,87,0.00,,,0.28,VWS V14.01,2013-06-18 03:13:00,
2013-06-17 21:18:00,60.0,56.1,30.04,SW,225,9.0,10.0,87,0.00,,,0.28,VWS V14.01,2013-06-18 03:18:00,
2013-06-17 21:23:00,59.0,55.1,30.04,SW,225,6.0,10.0,87,0.00,,,0.28,VWS V14.01,2013-06-18 03:23:00,
2013-06-17 21:28:00,59.0,54.8,30.04,SW,225,6.0,10.0,86,0.00,,,0.28,VWS V14.01,2013-06-18 03:28:00,
2013-06-17 21:33:00,59.0,54.2,30.05,SW,225,6.0,7.0,84,0.00,,,0.28,VWS V14.01,2013-06-18 03:33:00,
2013-06-17 21:38:00,58.0,52.9,30.05,SW,225,4.0,7.0,83,0.00,,,0.28,VWS V14.01,2013-06-18 03:38:00,
2013-06-17 21:43:00,58.0,52.9,30.05,SW,225,3.0,7.0,83,0.00,,,0.28,VWS V14.01,2013-06-18 03:43:00,
2013-06-17 21:48:00,58.0,51.9,30.05,SW,225,4.0,7.0,80,0.00,,,0.28,VWS V14.01,2013-06-18 03:48:00,
2013-06-17 21:53:00,58.0,52.2,30.05,SSW,202,6.0,7.0,81,0.00,,,0.28,VWS V14.01,2013-06-18 03:53:00,
2013-06-17 21:58:00,58.0,51.5,30.05,SW,225,5.0,7.0,79,0.00,,,0.28,VWS V14.01,2013-06-18 03:58:00,
2013-06-17 22:01:00,58.0,52.2,30.05,SW,225,7.0,7.0,81,0.00,,,0.28,VWS V14.01,2013-06-18 04:01:00,
2013-06-17 22:06:00,58.0,52.2,30.05,SW,225,7.0,9.0,81,0.00,,,0.28,VWS V14.01,2013-06-18 04:06:00,
2013-06-17 22:12:00,58.0,51.9,30.06,SW,225,4.0,9.0,80,0.00,,,0.28,VWS V14.01,2013-06-18 04:12:00,
2013-06-17 22:17:00,58.0,51.2,30.06,SW,225,7.0,9.0,78,0.00,,,0.28,VWS V14.01,2013-06-18 04:17:00,
2013-06-17 22:22:00,58.0,50.8,30.06,SW,225,4.0,9.0,77,0.00,,,0.28,VWS V14.01,2013-06-18 04:22:00,
2013-06-17 22:27:00,57.0,47.7,30.06,WSW,247,4.0,9.0,71,0.00,,,0.28,VWS V14.01,2013-06-18 04:27:00,
2013-06-17 22:32:00,57.0,46.6,30.06,SW,225,1.0,6.0,68,0.00,,,0.28,VWS V14.01,2013-06-18 04:32:00,
2013-06-17 22:37:00,57.0,47.7,30.06,WSW,247,4.0,7.0,71,0.00,,,0.28,VWS V14.01,2013-06-18 04:37:00,
2013-06-17 22:42:00,57.0,48.1,30.05,SW,225,6.0,7.0,72,0.00,,,0.28,VWS V14.01,2013-06-18 04:42:00,
2013-06-17 22:47:00,57.0,46.6,30.05,SW,225,6.0,7.0,68,0.00,,,0.28,VWS V14.01,2013-06-18 04:47:00,
2013-06-17 22:52:00,57.0,48.4,30.05,WSW,247,6.0,8.0,73,0.00,,,0.28,VWS V14.01,2013-06-18 04:52:00,
2013-06-17 22:57:00,57.0,48.1,30.05,WSW,247,6.0,8.0,72,0.00,,,0.28,VWS V14.01,2013-06-18 04:57:00,
2013-06-17 23:02:00,57.0,47.7,30.05,West,270,2.0,7.0,71,0.00,,,0.28,VWS V14.01,2013-06-18 05:02:00,
2013-06-17 23:07:00,57.0,47.7,30.05,SW,225,4.0,7.0,71,0.00,,,0.28,VWS V14.01,2013-06-18 05:07:00,
2013-06-17 23:12:00,56.0,47.5,30.05,SW,225,3.0,7.0,73,0.00,,,0.28,VWS V14.01,2013-06-18 05:12:00,
2013-06-17 23:17:00,56.0,46.7,30.05,SW,225,2.0,7.0,71,0.00,,,0.28,VWS V14.01,2013-06-18 05:17:00,
2013-06-17 23:22:00,56.0,46.0,30.06,SW,225,0.0,7.0,69,0.00,,,0.28,VWS V14.01,2013-06-18 05:22:00,
2013-06-17 23:27:00,56.0,45.6,30.06,WSW,247,0.0,7.0,68,0.00,,,0.28,VWS V14.01,2013-06-18 05:27:00,
2013-06-17 23:32:00,56.0,44.8,30.06,West,270,0.0,2.0,66,0.00,,,0.28,VWS V14.01,2013-06-18 05:32:00,
2013-06-17 23:37:00,56.0,44.4,30.06,WSW,247,0.0,2.0,65,0.00,,,0.28,VWS V14.01,2013-06-18 05:37:00,
2013-06-17 23:42:00,56.0,44.8,30.06,WSW,247,0.0,2.0,66,0.00,,,0.28,VWS V14.01,2013-06-18 05:42:00,
2013-06-17 23:47:00,56.0,45.6,30.06,WNW,292,3.0,6.0,68,0.00,,,0.28,VWS V14.01,2013-06-18 05:47:00,
2013-06-17 23:52:00,56.0,47.8,30.06,WSW,247,5.0,7.0,74,0.00,,,0.28,VWS V14.01,2013-06-18 05:52:00,
2013-06-17 23:57:00,56.0,46.4,30.06,WSW,247,4.0,7.0,70,0.00,,,0.28,VWS V14.01,2013-06-18 05:57:00,